Bookmark and Share
Track history (hours):
 

]idnight River

Last reported at 2014-Apr-23 03:26 UTC. Time now 2014-Apr-23 15:34 UTC.
Position N 18°03' W 063°10'.

MMSI: 352319000.

NotesDate/timePositionNaut miles runAvg speedWind from/ knotsBaromVisibWave heightAir tempDewpointWater temp
2014-Apr-23 03:26N 18°03' W 063°10'5 5.4
2014-Apr-23 02:33N 18°05' W 063°05'0 0.0
2014-Apr-23 01:33N 18°05' W 063°05'0 0.0
2014-Apr-23 00:22N 18°05' W 063°05'0 0.0
2014-Apr-22 23:32N 18°05' W 063°05'0 0.0
2014-Apr-22 22:30N 18°05' W 063°05'0 0.0
2014-Apr-22 21:31N 18°05' W 063°05'0 0.0
2014-Apr-22 20:27N 18°05' W 063°05'7 7.7
2014-Apr-22 19:33N 18°09' W 063°11'3 0.8
2014-Apr-22 15:13N 18°12' W 063°13'  
2014-Apr-17 07:31N 18°11' W 063°31'9 9.4
2014-Apr-17 06:33N 18°09' W 063°22'11 9.5
2014-Apr-17 05:24N 18°06' W 063°11'5 5.5
2014-Apr-17 04:25N 18°05' W 063°05'0 0.0
2014-Apr-17 03:21N 18°05' W 063°05'0 0.0
2014-Apr-17 02:33N 18°05' W 063°05'0 0.0
2014-Apr-17 01:23N 18°05' W 063°05'4 3.2
2014-Apr-17 00:14N 18°05' W 063°09'17 9.6
2014-Apr-16 22:30N 17°49' W 063°13'9 9.6
2014-Apr-16 21:32N 17°40' W 063°15'18 1.0
2014-Apr-16 03:07N 17°53' W 063°02'8 2.1
2014-Apr-15 23:14N 18°01' W 063°03'1 0.1
2014-Apr-15 12:33N 17°60' W 063°03'6 1.2
2014-Apr-15 07:31N 18°02' W 063°08'4 3.9
2014-Apr-15 06:31N 18°05' W 063°05'0 0.0
2014-Apr-15 05:29N 18°05' W 063°05'5 0.9
2014-Apr-14 23:31N 18°08' W 063°10'22 0.5
2014-Apr-13 04:09N 18°08' W 063°33'6 9.6
2014-Apr-13 03:33N 18°07' W 063°27'  

Dump ship's entire track history

sailing weather and tide predictions

]idnight River — HP7399 — position and weather